Simultaneous Nadir Overpasses (SNOs) Predictions

Prediction of SNOs between GOES-16 and METOP-B Satellite Orbit:

Table of predicted SNOs for the next 14.0 days since TLE Epoch: 6/2/2017
Index Date Time (GOES-16) GOES-16 Lat,Lon METOP-B Lat,Lon Distance(km) Time Diff (sec)
1 06/02/2017 15:27:37 0.00, -89.46 -0.16, -88.83 72.73 80
2 06/04/2017 03:46:36 -0.00, -89.45 -0.86, -93.43 452.28 80
3 06/05/2017 03:23:16 -0.00, -89.45 0.21, -88.42 116.33 80
4 06/06/2017 15:42:07 0.00, -89.45 0.81, -92.99 403.74 80
5 06/07/2017 15:24:08 0.00, -89.44 -0.33, -88.00 165.23 80
6 06/09/2017 03:43:07 -0.00, -89.44 -0.69, -92.59 359.04 80
7 06/10/2017 03:19:46 -0.00, -89.44 0.38, -87.59 209.87 80
8 06/11/2017 15:38:38 0.01, -89.44 0.63, -92.15 309.97 80
9 06/12/2017 15:20:38 0.01, -89.44 -0.51, -87.16 259.26 80
10 06/14/2017 03:39:38 -0.01, -89.44 -0.51, -91.76 264.42 80
11 06/15/2017 03:16:18 -0.00, -89.44 0.62, -86.77 304.65 80




NCC Satellite Simultaneous Nadir Overpasses (SNOs) Prediction Service
